TimeCDT,TemperatureF,Dew PointF,Humidity,Sea Level PressureIn,VisibilityMPH,Wind Direction,Wind SpeedMPH,Gust SpeedMPH,PrecipitationIn,Events,Conditions,WindDirDegrees,DateUTC
12:15 AM,57.2,57.2,100,29.61,10.0,South,4.6,-,N/A,,Clear,170,2012-04-01 05:15:00
12:35 AM,58.1,56.5,94,29.61,10.0,SSW,4.6,-,N/A,,Clear,200,2012-04-01 05:35:00
12:55 AM,57.7,55.4,92,29.62,10.0,West,3.5,-,N/A,,Clear,270,2012-04-01 05:55:00
1:15 AM,60.6,55.9,85,29.62,10.0,WSW,9.2,-,N/A,,Clear,250,2012-04-01 06:15:00
2:15 AM,58.8,55.6,89,29.62,10.0,NW,3.5,-,N/A,,Clear,320,2012-04-01 07:15:00
2:35 AM,55.4,54.5,97,29.61,10.0,Calm,Calm,-,N/A,,Clear,0,2012-04-01 07:35:00
2:55 AM,56.1,55.6,98,29.61,10.0,Calm,Calm,-,N/A,,Clear,0,2012-04-01 07:55:00
3:15 AM,57.9,55.0,90,29.61,10.0,WSW,5.8,-,N/A,,Clear,240,2012-04-01 08:15:00
3:35 AM,57.4,55.4,93,29.61,10.0,WSW,5.8,-,N/A,,Clear,250,2012-04-01 08:35:00
3:55 AM,57.2,55.6,94,29.61,10.0,WSW,6.9,-,N/A,,Clear,250,2012-04-01 08:55:00
4:15 AM,58.1,55.9,93,29.61,10.0,WSW,5.8,-,N/A,,Clear,240,2012-04-01 09:15:00
4:35 AM,57.0,55.8,96,29.61,10.0,SW,3.5,-,N/A,,Clear,230,2012-04-01 09:35:00
4:55 AM,55.6,55.0,98,29.61,10.0,Calm,Calm,-,N/A,,Clear,0,2012-04-01 09:55:00
5:15 AM,54.5,54.0,98,29.61,10.0,Calm,Calm,-,N/A,,Clear,0,2012-04-01 10:15:00
5:35 AM,56.3,55.0,96,29.61,10.0,Calm,Calm,-,N/A,,Clear,0,2012-04-01 10:35:00
5:55 AM,53.1,52.9,99,29.62,7.0,Calm,Calm,-,N/A,,Clear,0,2012-04-01 10:55:00
6:15 AM,52.0,52.0,100,29.62,7.0,NNE,5.8,-,N/A,,Clear,30,2012-04-01 11:15:00
6:35 AM,50.7,50.7,100,29.62,5.0,Calm,Calm,-,N/A,,Clear,0,2012-04-01 11:35:00
7:15 AM,51.1,51.1,100,29.62,5.0,ESE,3.5,-,N/A,,Clear,110,2012-04-01 12:15:00
7:35 AM,52.2,52.2,100,29.63,7.0,East,4.6,-,N/A,,Clear,100,2012-04-01 12:35:00
7:55 AM,53.8,53.8,100,29.62,7.0,ESE,4.6,-,N/A,,Clear,110,2012-04-01 12:55:00
8:15 AM,55.4,55.4,100,29.63,7.0,SE,3.5,-,N/A,,Clear,140,2012-04-01 13:15:00
8:35 AM,57.7,57.4,99,29.63,7.0,Calm,Calm,-,N/A,,Clear,0,2012-04-01 13:35:00
8:55 AM,60.8,58.8,93,29.63,7.0,East,3.5,-,N/A,,Clear,80,2012-04-01 13:55:00
9:15 AM,62.1,59.2,90,29.63,7.0,East,3.5,-,N/A,,Clear,80,2012-04-01 14:15:00
9:35 AM,64.0,60.4,88,29.63,7.0,East,3.5,-,N/A,,Clear,100,2012-04-01 14:35:00
9:55 AM,66.0,61.9,86,29.63,7.0,SE,3.5,-,N/A,,Clear,130,2012-04-01 14:55:00
10:15 AM,68.2,63.1,84,29.62,10.0,SE,3.5,-,N/A,,Clear,130,2012-04-01 15:15:00
10:35 AM,70.7,63.7,78,29.62,10.0,Calm,Calm,-,N/A,,Clear,0,2012-04-01 15:35:00
10:55 AM,72.7,64.6,76,29.61,10.0,Calm,Calm,-,N/A,,Clear,0,2012-04-01 15:55:00
11:15 AM,73.8,64.6,73,29.61,10.0,South,4.6,-,N/A,,Clear,180,2012-04-01 16:15:00
11:35 AM,75.6,65.3,70,29.60,10.0,South,4.6,-,N/A,,Clear,190,2012-04-01 16:35:00
11:55 AM,76.8,65.5,68,29.60,10.0,Calm,Calm,-,N/A,,Clear,0,2012-04-01 16:55:00
12:15 PM,78.1,66.4,67,29.59,10.0,SSE,5.8,-,N/A,,Clear,150,2012-04-01 17:15:00
12:35 PM,79.0,66.6,66,29.57,10.0,SSE,6.9,-,N/A,,Clear,160,2012-04-01 17:35:00
1:55 PM,83.5,63.5,51,29.54,10.0,SSE,10.4,-,N/A,,Clear,160,2012-04-01 18:55:00
2:15 PM,84.9,64.4,50,29.53,10.0,South,11.5,16.1,N/A,,Clear,170,2012-04-01 19:15:00
2:35 PM,85.1,62.8,47,29.52,10.0,SSE,16.1,-,N/A,,Clear,160,2012-04-01 19:35:00
2:55 PM,85.3,63.7,48,29.51,10.0,SE,12.7,-,N/A,,Clear,130,2012-04-01 19:55:00
3:15 PM,85.5,63.5,48,29.50,10.0,SE,15.0,18.4,N/A,,Clear,140,2012-04-01 20:15:00
3:35 PM,86.0,61.5,44,29.50,10.0,SE,17.3,21.9,N/A,,Clear,140,2012-04-01 20:35:00
3:55 PM,86.0,60.8,43,29.49,10.0,SSE,15.0,-,N/A,,Clear,150,2012-04-01 20:55:00
4:15 PM,86.0,58.6,39,29.49,10.0,SSE,15.0,21.9,N/A,,Clear,150,2012-04-01 21:15:00
4:35 PM,86.2,58.8,39,29.48,10.0,SSE,16.1,23.0,N/A,,Clear,150,2012-04-01 21:35:00
4:55 PM,86.0,58.8,40,29.47,10.0,SE,16.1,23.0,N/A,,Clear,140,2012-04-01 21:55:00
5:15 PM,85.8,58.5,39,29.47,10.0,SE,20.7,-,N/A,,Clear,140,2012-04-01 22:15:00
5:35 PM,85.1,55.9,37,29.47,10.0,SE,16.1,20.7,N/A,,Clear,140,2012-04-01 22:35:00
5:55 PM,85.1,56.3,37,29.47,10.0,SE,17.3,-,N/A,,Clear,140,2012-04-01 22:55:00
6:15 PM,83.5,57.6,41,29.47,10.0,SE,17.3,-,N/A,,Clear,140,2012-04-01 23:15:00
6:35 PM,82.4,58.3,44,29.48,10.0,SE,17.3,-,N/A,,Clear,140,2012-04-01 23:35:00
6:55 PM,81.1,58.6,46,29.49,10.0,SSE,16.1,24.2,N/A,,Clear,160,2012-04-01 23:55:00
7:15 PM,79.7,59.9,51,29.49,10.0,SSE,15.0,-,N/A,,Clear,160,2012-04-02 00:15:00
7:35 PM,77.2,60.8,57,29.49,10.0,SSE,12.7,-,N/A,,Clear,150,2012-04-02 00:35:00
8:15 PM,72.7,61.2,67,29.51,10.0,SE,10.4,-,N/A,,Clear,140,2012-04-02 01:15:00
8:35 PM,71.6,61.2,70,29.51,10.0,SE,10.4,-,N/A,,Clear,130,2012-04-02 01:35:00
8:55 PM,72.7,61.3,67,29.51,10.0,SE,11.5,-,N/A,,Clear,140,2012-04-02 01:55:00
9:15 PM,71.8,60.8,68,29.52,10.0,SE,10.4,-,N/A,,Clear,130,2012-04-02 02:15:00
9:35 PM,71.1,61.3,71,29.52,10.0,SE,11.5,-,N/A,,Clear,130,2012-04-02 02:35:00
9:55 PM,70.7,61.3,72,29.52,10.0,SE,10.4,-,N/A,,Clear,130,2012-04-02 02:55:00
10:15 PM,71.6,61.0,69,29.52,10.0,ESE,12.7,-,N/A,,Clear,120,2012-04-02 03:15:00
10:35 PM,70.9,61.0,71,29.52,10.0,ESE,12.7,-,N/A,,Clear,120,2012-04-02 03:35:00
10:55 PM,71.1,60.8,70,29.52,10.0,ESE,15.0,-,N/A,,Clear,120,2012-04-02 03:55:00
11:15 PM,70.9,60.6,70,29.52,10.0,ESE,10.4,-,N/A,,Clear,110,2012-04-02 04:15:00
11:35 PM,67.6,60.3,77,29.52,10.0,ESE,10.4,-,N/A,,Clear,110,2012-04-02 04:35:00
11:55 PM,66.2,59.9,80,29.52,10.0,ESE,9.2,-,N/A,,Clear,110,2012-04-02 04:55:00